Date String (YYYY-MM-DD hh:mm:ss) UTC,Instrument flags,absolute air pressure of the measurement (hPa),sample flow rate (lpm),inlet stack bypass flow (lpm),air temperature of the measurement (°C),ambient temperature measured by the external sensor (°C),aerosol sample conditioner tube jacket temperature (°C),OPC LED temperature (°C),internal box temperature (°C),relative humidity of the measurement (%),span deviation,mass concentration of particles derived from Lorenz-Mie calculation of OPC scattering (μg/m³),mass concentration of particles derived from Lorenz-Mie calculation of OPC scattering (μg/m³),mass concentration of particles derived from Lorenz-Mie calculation of OPC scattering (μg/m³)
DateTimeUTC,F1_M11,P_M11,Q1_M11,Q2_M11,T1_M11,T2_M11,T3_M11,T4_M11,T5_M11,U1_M11,ZSPAN_M11,X0_M11,X2_M11,X1_M11
2023-10-10 09:00:00,SystemResetWarning,0824.7,5.00,000.00,029.3,027.8,000.0,037.7,030.9,8.1,0000.0,0007.54,0003.12,0002.57
2023-10-10 09:01:00,SystemResetWarning,0824.7,5.00,000.00,029.3,027.8,000.0,037.7,030.9,8.1,0000.0,0006.70,0003.14,0002.59
2023-10-10 09:02:00,SystemResetWarning,0824.7,5.00,000.00,029.3,027.8,000.0,037.7,030.9,8.0,0000.0,0006.28,0003.16,0002.59
2023-10-10 09:03:00,SystemResetWarning,0824.7,5.00,000.00,029.3,027.8,000.0,037.7,030.9,8.0,0000.0,0006.45,0003.18,0002.57
2023-10-10 09:04:00,SystemResetWarning,0824.7,5.00,000.00,029.3,027.9,000.0,037.7,030.9,8.0,0000.0,0006.32,0003.19,0002.56
2023-10-10 09:05:00,SystemResetWarning,0824.7,5.00,000.00,029.3,027.9,000.0,037.7,030.9,8.1,0000.0,0005.27,0003.21,0002.56
2023-10-10 09:06:00,SystemResetWarning,0824.7,5.00,000.00,029.3,027.9,000.0,037.7,031.0,8.1,0000.0,0005.76,0003.21,0002.56
2023-10-10 09:07:00,SystemResetWarning,0824.7,5.00,000.00,029.3,027.9,000.0,037.8,031.0,8.0,0000.0,0006.40,0003.19,0002.56
2023-10-10 09:08:00,SystemResetWarning,0824.7,5.00,000.00,029.3,027.9,000.0,037.8,031.0,8.0,0000.0,0006.43,0003.21,0002.57
2023-10-10 09:09:00,SystemResetWarning,0824.7,5.00,000.00,029.3,027.9,000.0,037.8,031.0,8.0,0000.0,0006.39,0003.19,0002.56
2023-10-10 09:10:00,SystemResetWarning,0824.7,5.00,000.00,029.3,027.9,000.0,037.8,031.0,8.0,0000.0,0006.37,0003.17,0002.55
2023-10-10 09:11:00,SystemResetWarning,0824.7,5.00,000.00,029.4,027.9,000.0,037.8,031.0,7.9,0000.0,0006.21,0003.16,0002.55
2023-10-10 09:12:00,SystemResetWarning,0824.7,5.00,000.00,029.4,027.9,000.0,037.8,031.0,8.0,0000.0,0006.13,0003.14,0002.52
2023-10-10 09:13:00,SystemResetWarning,0824.7,5.00,000.00,029.4,027.9,000.0,037.8,031.0,7.9,0000.0,0006.15,0003.11,0002.49
2023-10-10 09:14:00,SystemResetWarning,0824.7,5.00,000.00,029.4,027.9,000.0,037.8,031.0,7.9,0000.0,0006.45,0003.12,0002.49
2023-10-10 09:15:00,SystemResetWarning,0824.6,5.00,000.00,029.4,028.0,000.0,037.8,031.0,7.9,0000.0,0006.29,0003.11,0002.47
2023-10-10 09:16:00,SystemResetWarning,0824.5,5.00,000.00,029.4,028.0,000.0,037.8,031.0,7.9,0000.0,0006.14,0003.07,0002.44
2023-10-10 09:17:00,SystemResetWarning,0824.5,5.00,000.00,029.4,028.0,000.0,037.8,031.0,7.9,0000.0,0005.58,0003.01,0002.40
2023-10-10 09:18:00,SystemResetWarning,0824.5,5.00,000.00,029.4,028.0,000.0,037.8,031.0,7.7,0000.0,0005.88,0002.97,0002.35
2023-10-10 09:19:00,SystemResetWarning,0824.5,5.00,000.00,029.4,028.0,000.0,037.8,031.0,7.8,0000.0,0005.87,0002.93,0002.33
2023-10-10 09:20:00,SystemResetWarning,0824.5,5.00,000.00,029.4,028.0,000.0,037.8,031.0,7.8,0000.0,0005.82,0002.87,0002.29
2023-10-10 09:21:00,SystemResetWarning,0824.5,5.00,000.00,029.4,028.0,000.0,037.8,031.0,7.8,0000.0,0005.77,0002.84,0002.24
2023-10-10 09:22:00,SystemResetWarning,0824.5,5.00,000.00,029.4,028.0,000.0,037.8,031.0,7.8,0000.0,0005.69,0002.78,0002.19
2023-10-10 09:23:00,SystemResetWarning,0824.5,5.00,000.00,029.4,028.0,000.0,037.8,031.0,7.9,0000.0,0005.60,0002.73,0002.16
2023-10-10 09:24:00,SystemResetWarning,0824.5,5.00,000.00,029.4,028.0,000.0,037.8,031.0,7.9,0000.0,0005.35,0002.66,0002.12
2023-10-10 09:25:00,SystemResetWarning,0824.5,5.00,000.00,029.4,028.0,000.0,037.8,031.0,7.9,0000.0,0004.88,0002.58,0002.07
2023-10-10 09:26:00,SystemResetWarning,0824.5,4.99,000.00,029.4,028.0,000.0,037.8,031.0,7.8,0000.0,0005.02,0002.58,0002.05
2023-10-10 09:27:00,SystemResetWarning,0824.6,5.00,000.00,029.4,028.0,000.0,037.8,031.0,7.8,0000.0,0004.98,0002.53,0002.01
2023-10-10 09:28:00,SystemResetWarning,0824.6,5.00,000.00,029.4,028.0,000.0,037.8,031.0,7.8,0000.0,0005.49,0002.53,0001.99
2023-10-10 09:29:00,SystemResetWarning,0824.7,5.00,000.00,029.4,028.0,000.0,037.8,031.0,7.8,0000.0,0004.51,0002.49,0001.98
2023-10-10 09:30:00,SystemResetWarning,0824.7,5.01,000.00,029.4,027.9,000.0,037.9,031.0,7.9,0000.0,0004.33,0002.46,0001.96
2023-10-10 09:31:00,SystemResetWarning,0824.7,5.00,000.00,029.4,027.9,000.0,037.9,031.0,8.1,0000.0,0004.22,0002.42,0001.94
2023-10-10 09:32:00,SystemResetWarning,0824.7,5.00,000.00,029.4,027.9,000.0,037.9,031.0,8.1,0000.0,0004.07,0002.35,0001.92
2023-10-10 09:33:00,SystemResetWarning,0824.7,5.00,000.00,029.4,027.9,000.0,037.9,031.0,8.1,0000.0,0004.02,0002.33,0001.91
2023-10-10 09:34:00,SystemResetWarning,0824.7,5.00,000.00,029.4,027.9,000.0,037.9,031.0,8.1,0000.0,0004.07,0002.33,0001.91
2023-10-10 09:35:00,SystemResetWarning,0824.7,5.00,000.00,029.4,027.9,000.0,037.8,031.0,8.1,0000.0,0004.12,0002.35,0001.92
2023-10-10 09:36:00,SystemResetWarning,0824.7,4.99,000.00,029.4,027.9,000.0,037.8,031.0,8.0,0000.0,0004.20,0002.37,0001.92
2023-10-10 09:37:00,SystemResetWarning,0824.7,4.99,000.00,029.4,027.9,000.0,037.8,031.0,8.0,0000.0,0004.10,0002.31,0001.90
2023-10-10 09:38:00,SystemResetWarning,0824.7,5.00,000.00,029.4,027.9,000.0,037.8,031.0,7.9,0000.0,0004.41,0002.32,0001.90
2023-10-10 09:39:00,SystemResetWarning,0824.7,5.00,000.00,029.4,027.9,000.0,037.8,031.0,7.9,0000.0,0004.82,0002.30,0001.89
2023-10-10 09:40:00,SystemResetWarning,0824.7,5.00,000.00,029.4,027.9,000.0,037.8,031.0,7.9,0000.0,0004.62,0002.30,0001.88
2023-10-10 09:41:00,SystemResetWarning,0824.7,5.00,000.00,029.4,027.9,000.0,037.9,031.0,7.9,0000.0,0004.57,0002.27,0001.85
2023-10-10 09:42:00,SystemResetWarning,0824.7,5.00,000.00,029.4,027.9,000.0,037.9,031.0,7.9,0000.0,0004.58,0002.26,0001.83
2023-10-10 09:43:00,SystemResetWarning,0824.7,5.00,000.00,029.4,027.9,000.0,037.9,031.0,7.8,0000.0,0004.51,0002.26,0001.83
2023-10-10 09:44:00,SystemResetWarning,0824.6,5.00,000.00,029.4,027.9,000.0,037.9,031.0,7.8,0000.0,0004.65,0002.26,0001.82
2023-10-10 09:45:00,SystemResetWarning,0824.6,5.00,000.00,029.4,027.9,000.0,037.9,031.0,7.8,0000.0,0004.61,0002.19,0001.80
2023-10-10 09:46:00,SystemResetWarning,0824.6,5.00,000.00,029.4,027.9,000.0,037.9,031.0,7.8,0000.0,0004.81,0002.15,0001.77
2023-10-10 09:47:00,SystemResetWarning,0824.6,5.00,000.00,029.4,027.9,000.0,037.9,031.0,7.8,0000.0,0004.75,0002.13,0001.75
2023-10-10 09:48:00,SystemResetWarning,0824.5,5.00,000.00,029.4,027.9,000.0,037.9,030.9,7.8,0000.0,0004.64,0002.11,0001.73
2023-10-10 09:49:00,SystemResetWarning,0824.5,4.99,000.00,029.4,027.9,000.0,037.9,030.9,7.8,0000.0,0004.60,0002.12,0001.72
2023-10-10 09:50:00,SystemResetWarning,0824.5,5.00,000.00,029.4,027.9,000.0,037.9,031.0,7.8,0000.0,0003.65,0002.12,0001.71
2023-10-10 09:51:00,SystemResetWarning,0824.4,5.00,000.00,029.4,027.9,000.0,037.8,031.0,7.8,0000.0,0004.09,0002.07,0001.69
2023-10-10 09:52:00,SystemResetWarning,0824.5,5.00,000.00,029.4,027.9,000.0,037.9,031.0,7.7,0000.0,0004.01,0002.02,0001.68
2023-10-10 09:53:00,SystemResetWarning,0824.5,5.00,000.00,029.4,027.9,000.0,037.9,031.0,7.7,0000.0,0004.10,0002.00,0001.67
2023-10-10 09:54:00,SystemResetWarning,0824.5,5.01,000.00,029.4,027.9,000.0,037.9,030.9,7.7,0000.0,0004.21,0002.02,0001.65
2023-10-10 09:55:00,SystemResetWarning,0824.5,5.01,000.00,029.4,027.9,000.0,037.9,030.9,7.8,0000.0,0004.00,0001.98,0001.63
2023-10-10 09:56:00,SystemResetWarning,0824.5,5.00,000.00,029.4,027.9,000.0,037.8,030.9,8.0,0000.0,0003.88,0001.97,0001.63
2023-10-10 09:57:00,SystemResetWarning,0824.5,5.00,000.00,029.4,027.8,000.0,037.8,030.9,8.7,0000.0,0003.71,0001.97,0001.62
2023-10-10 09:58:00,SystemResetWarning,0824.5,4.99,000.00,029.4,027.8,000.0,037.9,030.9,9.1,0000.0,0003.80,0001.97,0001.63
2023-10-10 09:59:00,SystemResetWarning,0824.5,4.99,000.00,029.4,027.8,000.0,037.8,030.9,9.3,0000.0,0003.96,0001.98,0001.64
